Weather History for Nacogdoches, TX

Change the Weather History Date:

Friday, October 14, 2011

  Actual Average Record
Temperature  
Mean Temperature 71 °F -  
Max Temperature 87 °F 75 °F 87 °F (1999)
Min Temperature 55 °F 53 °F 46 °F (2000)
Cooling Degree Days 6    
Growing Degree Days 21 (Base 50)    
Moisture  
Dew Point 43 °F    
Average Humidity 34    
Maximum Humidity 72    
Minimum Humidity 16    
Precipitation  
Precipitation 0.00 in - - ()
Sea Level Pressure  
Sea Level Pressure 29.97 in    
Wind  
Wind Speed 4 mph (SE)    
Max Wind Speed 7 mph    
Max Gust Speed -    
Visibility 10 miles    
Events      
Averages and records for this station are not official NWS values.
T = Trace of Precipitation, MM = Missing Value Source: NWS Daily Summary

Daily Weather History Graph

Daily Weather History Graph

Search for Another Location

Airport:

Trip Planner

Search our weather history database for the weather conditions in past years. The results will help you decide how hot, cold, wet, or windy it might be!

Date:

Astronomy

Oct. 14, 2011 Rise Set
Actual Time 7:21 AM CDT 6:48 PM CDT
Civil Twilight 6:56 AM CDT 7:12 PM CDT
Nautical Twilight 6:28 AM CDT 7:40 PM CDT
Astronomical Twilight 6:00 AM CDT 8:09 PM CDT
Moon 8:15 PM CDT (10/14) 9:37 AM CDT (10/14)
Length of Visible Light 12h 16m
Length of Day
11h 27m
Waning Gibbous, 94% of the Moon is Illuminated
Oct 14
Waning Gibbous
Oct 19
Last Quarter
Oct 26
New
Nov 2
First Quarter
Nov 10
Full

Hourly Weather History & Observations

Time (CDT) Temp. Dew Point Humidity Pressure Visibility Wind Dir Wind Speed Gust Speed Precip Events Conditions
10:16 AM 71.6 °F 48.2 °F 43% 30.02 in 10.0 mi ESE 5.8 mph - N/A   Clear
10:35 AM 73.4 °F 48.2 °F 41% 30.03 in 10.0 mi SE 5.8 mph - N/A   Clear
10:55 AM 75.2 °F 48.2 °F 38% 30.03 in 10.0 mi SSE 5.8 mph - N/A   Clear
11:35 AM 78.8 °F 46.4 °F 32% 30.02 in 10.0 mi South 4.6 mph - N/A   Clear
11:55 AM 78.8 °F 46.4 °F 32% 30.02 in 10.0 mi SE 6.9 mph - N/A   Clear
12:15 PM 80.6 °F 42.8 °F 26% 30.01 in 10.0 mi Calm Calm - N/A   Clear
12:35 PM 80.6 °F 44.6 °F 28% 30.00 in 10.0 mi SSE 3.5 mph - N/A   Clear
12:55 PM 82.4 °F 42.8 °F 25% 30.00 in 10.0 mi ESE 5.8 mph - N/A   Clear
1:15 PM - - N/A% - 10.0 mi North - - N/A   Clear
1:35 PM - - N/A% - 10.0 mi North - - N/A   Clear
1:55 PM - - N/A% - 10.0 mi North - - N/A   Clear
2:15 PM - - N/A% - 10.0 mi North - - N/A   Clear
2:35 PM 84.2 °F 39.2 °F 20% 29.95 in 10.0 mi SE 4.6 mph - N/A   Clear
2:55 PM 84.2 °F 39.2 °F 20% 29.94 in 10.0 mi Calm Calm - N/A   Clear
3:15 PM 86.0 °F 37.4 °F 18% 29.93 in 10.0 mi SSW 6.9 mph - N/A   Clear
3:35 PM 86.0 °F 37.4 °F 18% 29.93 in 10.0 mi SW 3.5 mph - N/A   Clear
3:55 PM 87.8 °F 39.2 °F 18% 29.92 in 10.0 mi South 3.5 mph - N/A   Clear
4:15 PM 87.8 °F 37.4 °F 17% 29.92 in 10.0 mi WNW 3.5 mph - N/A   Clear
4:35 PM 87.8 °F 37.4 °F 17% 29.92 in 10.0 mi ESE 4.6 mph - N/A   Clear
4:55 PM 87.8 °F 37.4 °F 17% 29.92 in 10.0 mi East 4.6 mph - N/A   Clear
5:15 PM 87.8 °F 37.4 °F 17% 29.92 in 10.0 mi ESE 4.6 mph - N/A   Clear
5:35 PM 87.8 °F 35.6 °F 16% 29.92 in 10.0 mi Calm Calm - N/A   Clear
5:55 PM 86.0 °F 39.2 °F 19% 29.92 in 10.0 mi Calm Calm - N/A   Clear
6:15 PM 84.2 °F 44.6 °F 25% 29.92 in 10.0 mi ESE 3.5 mph - N/A   Clear
6:35 PM 77.0 °F 48.2 °F 36% 29.93 in 10.0 mi Calm Calm - N/A   Clear
9:35 PM 59.0 °F 46.4 °F 63% 29.98 in 10.0 mi Calm Calm - N/A   Clear
9:55 PM 59.0 °F 46.4 °F 63% 29.98 in 10.0 mi Calm Calm - N/A   Clear
10:55 PM 57.2 °F 46.4 °F 67% 29.99 in 10.0 mi Calm Calm - N/A   Clear
11:15 PM 57.2 °F 46.4 °F 67% 29.99 in 10.0 mi Calm Calm - N/A   Clear
11:35 PM 55.4 °F 46.4 °F 72% 30.00 in 10.0 mi Calm Calm - N/A   Clear
11:55 PM 57.2 °F 46.4 °F 67% 30.01 in 10.0 mi ESE 3.5 mph - N/A   Clear